Language: 


Des rapports , des résumés tant et plus, au choix de chacun....


Données statistiques de la station
Quotidien Rapport Aout 9, 2017 Unités:  Anglais    Métrique   les deux
« Précédent Jour
Suivant Jour »
Quotidien Hebdomadaire Mensuel Annuel Actuel
  Haut: Bas: Moyen:
Température: 74.1 °F 32 °F 61.2 °F
Pt de rosée: 60.8 °F 50 °F 55.8 °F
Humidité: 98 % 0 % 82 %
Vitesse du vent: 10.5 mph 0 mph 2.9 mph
Rafales: 11 mph - -
Vent:- - SW
Pression: 30.1 in 0 in -
Précipitation: 0.08 in    
Historical Graphs
 
 
Données statistiques pour Aout 9, 2017
Heure Température Point de rosée Pression Vent Vitesse du vent Refales Humidité Pluie (taux horaire)
00:00 59.4 °F 59 °F 29.9 in WSW 6.7 mph 6.7 mph 97 % 0 in
00:05 59.4 °F 59 °F 29.9 in SSW 4.9 mph 6.7 mph 97 % 0 in
00:10 59.4 °F 59 °F 29.9 in SSW 2.9 mph 6.7 mph 97 % 0 in
00:15 59.2 °F 59 °F 29.9 in SW 3.4 mph 5.8 mph 97 % 0 in
00:20 59.2 °F 59 °F 29.9 in SW 4 mph 7.8 mph 97 % 0 in
00:25 59.2 °F 59 °F 29.9 in SW 3.6 mph 8.7 mph 97 % 0 in
00:30 59.2 °F 59 °F 29.9 in WSW 4 mph 8.7 mph 97 % 0 in
00:35 59 °F 59 °F 29.9 in West 3.4 mph 8.1 mph 97 % 0 in
00:40 59 °F 59 °F 29.9 in SW 6 mph 8.1 mph 97 % 0 in
00:45 58.8 °F 59 °F 29.9 in WSW 4.5 mph 8.1 mph 98 % 0 in
00:50 58.8 °F 59 °F 29.9 in West 5.8 mph 7.4 mph 98 % 0 in
00:55 58.8 °F 59 °F 29.9 in West 6 mph 10.1 mph 98 % 0 in
01:00 58.8 °F 59 °F 29.9 in WSW 5.6 mph 10.1 mph 98 % 0 in
01:05 58.6 °F 59 °F 29.9 in WSW 5.4 mph 7.8 mph 98 % 0 in
01:10 58.5 °F 59 °F 29.8 in West 4.3 mph 7.4 mph 98 % 0 in
01:15 58.3 °F 57.2 °F 29.8 in Calm   6 mph 97 % 0 in
01:20 58.1 °F 57.2 °F 29.8 in Calm   5.6 mph 97 % 0 in
01:25 57.7 °F 57.2 °F 29.9 in Calm   5.6 mph 97 % 0 in
01:30 57.6 °F 57.2 °F 29.9 in Calm   4.9 mph 97 % 0 in
01:31 57.6 °F 57.2 °F 29.9 in Calm   4.9 mph 97 % 0 in
01:36 57.4 °F 57.2 °F 29.9 in Calm   4.7 mph 97 % 0 in
01:41 57.4 °F 57.2 °F 29.9 in Calm   4.3 mph 97 % 0 in
01:46 57.4 °F 57.2 °F 29.9 in Calm   5.4 mph 97 % 0 in
01:51 57.2 °F 57.2 °F 29.9 in Calm   5.4 mph 97 % 0 in
01:56 57.2 °F 57.2 °F 29.9 in WSW 4.9 mph 4.9 mph 98 % 0 in
02:02 57.2 °F 57.2 °F 29.9 in WSW 2.5 mph 5.8 mph 98 % 0 in
02:07 57.2 °F 57.2 °F 29.9 in Calm   5.8 mph 98 % 0 in
02:12 57.2 °F 57.2 °F 29.9 in Calm   6.3 mph 98 % 0 in
02:17 57 °F 57.2 °F 29.9 in SSW 2.7 mph 6.5 mph 98 % 0 in
02:22 57.2 °F 57.2 °F 29.9 in SW 3.6 mph 6.5 mph 98 % 0 in
02:23 57.2 °F 57.2 °F 29.9 in Calm   6.5 mph 98 % 0 in
02:28 57.2 °F 57.2 °F 29.9 in Calm   6 mph 98 % 0 in
02:33 57.2 °F 57.2 °F 29.9 in SW 4 mph 6.9 mph 98 % 0 in
02:36 57.2 °F 57.2 °F 29.9 in SW 6 mph 6.9 mph 98 % 0 in
02:41 57.2 °F 57.2 °F 29.9 in SSW 4 mph 7.8 mph 98 % 0 in
02:46 57.2 °F 57.2 °F 29.9 in SW 4.7 mph 7.8 mph 98 % 0 in
02:51 57.2 °F 57.2 °F 29.9 in SW 3.1 mph 6.3 mph 98 % 0 in
02:56 57.2 °F 57.2 °F 29.9 in SSW 4 mph 6.3 mph 98 % 0 in
03:01 57.4 °F 57.2 °F 29.9 in SSW 4.3 mph 7.2 mph 98 % 0 in
03:06 57.4 °F 57.2 °F 29.9 in Calm   7.2 mph 98 % 0 in
03:11 57.2 °F 57.2 °F 29.9 in Calm   6 mph 98 % 0 in
03:16 57 °F 57.2 °F 29.9 in WSW 2.5 mph 5.6 mph 98 % 0 in
03:21 57 °F 57.2 °F 29.9 in SSW 3.8 mph 5.6 mph 98 % 0 in
03:26 57.2 °F 57.2 °F 29.9 in Calm   5.8 mph 98 % 0 in
03:31 57.2 °F 57.2 °F 29.9 in SW 5.4 mph 7.6 mph 98 % 0 in
03:36 57.2 °F 57.2 °F 29.9 in SSW 6.5 mph 7.6 mph 98 % 0 in
03:41 57.2 °F 57.2 °F 29.9 in SW 4.9 mph 8.7 mph 98 % 0 in
03:46 56.8 °F 57.2 °F 29.9 in SW 5.4 mph 8.7 mph 98 % 0 in
03:51 56.7 °F 57.2 °F 29.9 in SW 6 mph 6.7 mph 98 % 0 in
03:56 56.7 °F 57.2 °F 29.9 in SW 4.3 mph 7.8 mph 98 % 0 in
04:01 56.5 °F 57.2 °F 29.9 in SW 3.6 mph 7.8 mph 98 % 0 in
04:06 56.3 °F 57.2 °F 29.9 in SW 7.6 mph 7.8 mph 98 % 0 in
04:11 56.1 °F 55.4 °F 29.9 in SW 7.4 mph 7.6 mph 98 % 0 in
04:16 55.9 °F 55.4 °F 29.9 in WSW 0.9 mph 7.4 mph 97 % 0 in
04:21 55.8 °F 55.4 °F 29.9 in SSW 4.7 mph 5.8 mph 97 % 0 in
04:26 55.8 °F 55.4 °F 29.9 in SW 6 mph 7.4 mph 98 % 0 in
04:31 55.8 °F 55.4 °F 29.9 in SSE 5.6 mph 7.4 mph 98 % 0 in
04:36 55.6 °F 55.4 °F 29.9 in SW 2.7 mph 7.6 mph 98 % 0 in
04:41 55.2 °F 55.4 °F 29.9 in WSW 3.1 mph 7.6 mph 98 % 0 in
04:46 55 °F 55.4 °F 29.9 in Calm   6.5 mph 98 % 0 in
04:51 55 °F 55.4 °F 29.9 in SW 2.7 mph 7.6 mph 98 % 0 in
04:56 54.9 °F 55.4 °F 29.9 in SSW 0.9 mph 7.6 mph 98 % 0 in
05:01 54.7 °F 55.4 °F 29.9 in SW 4.3 mph 5.6 mph 98 % 0 in
05:06 54.5 °F 55.4 °F 29.9 in SW 3.4 mph 5.6 mph 98 % 0 in
05:11 54.5 °F 55.4 °F 29.9 in Calm   6 mph 98 % 0 in
05:17 54.3 °F 55.4 °F 29.9 in SSW 4 mph 5.6 mph 98 % 0 in
05:19 54.3 °F 55.4 °F 29.9 in Calm   5.6 mph 98 % 0 in
05:22 54.3 °F 55.4 °F 29.9 in SSW 4.3 mph 6.5 mph 98 % 0 in
05:25 54.3 °F 55.4 °F 29.9 in SSW 3.8 mph 6.5 mph 98 % 0 in
05:28 54.3 °F 55.4 °F 29.9 in SSW 2 mph 6.5 mph 98 % 0 in
05:33 54.3 °F 55.4 °F 29.9 in SW 2.9 mph 6.3 mph 98 % 0 in
05:38 54.1 °F 55.4 °F 29.9 in SSW 4.9 mph 7.8 mph 98 % 0 in
05:43 54.1 °F 55.4 °F 29.9 in SSW 7.2 mph 7.8 mph 98 % 0 in
05:48 54.1 °F 55.4 °F 29.9 in SSW 2.9 mph 7.2 mph 98 % 0 in
05:53 54 °F 53.6 °F 29.9 in SW 5.6 mph 8.1 mph 98 % 0 in
05:58 54 °F 53.6 °F 29.9 in SSW 5.4 mph 8.1 mph 98 % 0 in
06:03 54 °F 53.6 °F 29.9 in WSW 3.8 mph 7.6 mph 98 % 0 in
06:08 54 °F 53.6 °F 29.9 in SW 0.9 mph 6.3 mph 98 % 0 in
06:13 54 °F 53.6 °F 29.9 in WSW 3.4 mph 6 mph 98 % 0 in
06:18 54 °F 53.6 °F 29.9 in SW 5.4 mph 6 mph 98 % 0 in
06:23 54 °F 53.6 °F 29.9 in WSW 3.4 mph 5.8 mph 98 % 0 in
06:28 54.1 °F 55.4 °F 29.9 in Calm   5.8 mph 98 % 0 in
06:33 54.1 °F 55.4 °F 29.9 in Calm   4.9 mph 98 % 0 in
06:38 54.1 °F 55.4 °F 29.9 in Calm   3.8 mph 98 % 0 in
06:43 54.1 °F 55.4 °F 29.9 in Calm   4 mph 98 % 0 in
06:48 54.1 °F 55.4 °F 29.9 in SW 4 mph 4.3 mph 98 % 0 in
06:54 54.1 °F 55.4 °F 29.9 in SSW 0.9 mph 5.4 mph 98 % 0 in
06:59 54 °F 53.6 °F 29.9 in Calm   5.4 mph 98 % 0 in
07:04 53.8 °F 53.6 °F 29.9 in SSW 1.3 mph 5.4 mph 98 % 0 in
07:09 53.8 °F 53.6 °F 29.9 in SSW 2.5 mph 2.5 mph 98 % 0 in
07:14 54 °F 53.6 °F 29.9 in Calm   2.5 mph 98 % 0 in
07:19 54.1 °F 55.4 °F 29.9 in Calm     98 % 0 in
07:24 54.5 °F 55.4 °F 29.9 in Calm     98 % 0 in
07:29 54.9 °F 55.4 °F 29.9 in Calm     98 % 0 in
07:34 55.2 °F 55.4 °F 29.9 in Calm     98 % 0 in
07:39 55.6 °F 55.4 °F 29.9 in Calm   3.4 mph 98 % 0 in
07:44 55.8 °F 55.4 °F 29.9 in Calm   4.9 mph 98 % 0 in
07:49 56.1 °F 55.4 °F 29.9 in Calm   4.9 mph 98 % 0 in
07:54 56.3 °F 57.2 °F 29.9 in Calm   4.9 mph 98 % 0 in
07:59 56.5 °F 57.2 °F 29.9 in SW 3.8 mph 5.6 mph 98 % 0 in
08:04 56.8 °F 55.4 °F 29.9 in SSW 4.3 mph 5.6 mph 97 % 0 in
08:09 57.2 °F 57.2 °F 29.9 in South 4.9 mph 5.6 mph 97 % 0 in
08:14 57.4 °F 57.2 °F 29.9 in SSW 2.5 mph 5.8 mph 97 % 0 in
08:20 57.7 °F 57.2 °F 29.9 in Calm   6.3 mph 97 % 0 in
08:25 58.1 °F 57.2 °F 29.9 in SW 3.4 mph 6.3 mph 96 % 0 in
08:27 58.5 °F 57.2 °F 29.9 in SSW 3.6 mph 5.6 mph 96 % 0 in
08:32 58.6 °F 57.2 °F 29.9 in South 5.6 mph 7.6 mph 95 % 0 in
08:37 58.6 °F 57.2 °F 29.9 in SSW 4 mph 8.1 mph 94 % 0 in
08:42 59 °F 57.2 °F 29.9 in SSW 3.8 mph 8.1 mph 94 % 0 in
08:47 59.5 °F 57.2 °F 29.9 in WSW 4 mph 7.6 mph 94 % 0 in
08:52 59.7 °F 57.2 °F 29.9 in SW 3.4 mph 7.6 mph 94 % 0 in
08:57 60.3 °F 59 °F 29.9 in SW 3.6 mph 6.5 mph 93 % 0 in
09:02 60.6 °F 59 °F 29.9 in WSW 4 mph 6 mph 93 % 0 in
09:07 61.2 °F 59 °F 29.9 in SW 3.4 mph 4.9 mph 93 % 0 in
09:13 61.7 °F 59 °F 29.9 in SSW 4.3 mph 5.8 mph 91 % 0 in
09:18 61.9 °F 59 °F 29.9 in SW 4.3 mph 6.5 mph 91 % 0 in
09:23 62.1 °F 59 °F 29.9 in WSW 1.1 mph 7.8 mph 89 % 0 in
09:28 62.2 °F 59 °F 29.9 in WSW 5.4 mph 9.2 mph 88 % 0 in
09:33 62.8 °F 59 °F 29.9 in WSW 5.4 mph 9.2 mph 87 % 0 in
09:38 63 °F 59 °F 29.9 in South 4.3 mph 6.5 mph 86 % 0 in
09:43 63.5 °F 59 °F 29.9 in WSW 2.5 mph 6.5 mph 86 % 0 in
09:48 64 °F 59 °F 29.9 in SSW 4.9 mph 7.6 mph 85 % 0 in
09:53 64.2 °F 59 °F 29.9 in SW 2.9 mph 7.6 mph 83 % 0 in
09:58 65.1 °F 59 °F 29.9 in SSW 4.3 mph 6 mph 82 % 0 in
10:03 65.7 °F 60.8 °F 29.9 in SSW 7.4 mph 8.1 mph 82 % 0 in
10:08 65.7 °F 59 °F 29.9 in SSW 4.9 mph 9.8 mph 78 % 0 in
10:13 66 °F 59 °F 29.9 in SSW 0.9 mph 9.8 mph 79 % 0 in
10:18 66.2 °F 59 °F 29.9 in SSW 3.6 mph 8.7 mph 77 % 0 in
10:23 66.7 °F 59 °F 29.9 in Calm   10.1 mph 76 % 0 in
10:33 67.5 °F 59 °F 29.9 in SSW 6 mph 7.4 mph 75 % 0 in
10:38 67.8 °F 59 °F 29.9 in SW 6.3 mph 7.4 mph 74 % 0 in
10:43 68 °F 59 °F 29.9 in SSW 1.6 mph 7.8 mph 71 % 0 in
10:49 68.4 °F 59 °F 29.9 in WSW 3.1 mph 7.8 mph 72 % 0 in
10:54 67.5 °F 57.2 °F 29.9 in WSW 5.4 mph 7.6 mph 70 % 0 in
10:59 67.8 °F 57.2 °F 29.9 in SSW 6.5 mph 7.6 mph 70 % 0 in
11:04 68 °F 57.2 °F 29.9 in SSW 3.4 mph 6.5 mph 70 % 0 in
11:09 68.5 °F 57.2 °F 29.9 in WSW 6 mph 6.3 mph 67 % 0 in
11:14 69.6 °F 59 °F 29.9 in Calm   9.8 mph 68 % 0 in
11:19 70.7 °F 60.8 °F 29.9 in SW 6.3 mph 9.8 mph 69 % 0 in
11:24 70.3 °F 59 °F 29.9 in SSW 5.4 mph 8.1 mph 65 % 0 in
11:29 70.2 °F 57.2 °F 29.9 in WSW 4.7 mph 8.5 mph 62 % 0 in
11:34 70 °F 57.2 °F 29.9 in SSE 6 mph 8.5 mph 63 % 0 in
11:39 69.8 °F 57.2 °F 29.9 in SSE 1.6 mph 8.5 mph 64 % 0 in
11:44 70.3 °F 57.2 °F 29.9 in SSE 6 mph 10.1 mph 62 % 0 in
11:49 71.4 °F 57.2 °F 29.9 in SW 4 mph 10.1 mph 61 % 0 in
15:47 32 °F 59 °F 29.9 in Calm     0 % 0 in
15:52 69.6 °F 50 °F 29.9 in SSW 4.9 mph 10.1 mph 48 % 0 in
15:57 69.3 °F 51.8 °F 29.9 in SSW 4.9 mph 10.1 mph 52 % 0 in
16:02 69.1 °F 51.8 °F 29.9 in South 8.5 mph 8.5 mph 52 % 0 in
16:07 69.1 °F 50 °F 29.9 in South 6.3 mph 9.8 mph 51 % 0 in
16:11 69.3 °F 50 °F 30 in South 5.8 mph 9.8 mph 51 % 0 in
16:16 69.1 °F 51.8 °F 30 in SW 7.6 mph 9.6 mph 52 % 0 in
16:18 68.9 °F 50 °F 30 in WSW 4 mph 9.6 mph 51 % 0 in
16:23 68.9 °F 51.8 °F 30 in SSW 5.6 mph 8.1 mph 53 % 0 in
16:28 68.4 °F 51.8 °F 30 in West 10.5 mph 10.5 mph 55 % 0 in
16:33 68.2 °F 51.8 °F 30 in West 3.8 mph 10.5 mph 55 % 0 in
16:38 68 °F 51.8 °F 30 in West 6.5 mph 10.5 mph 55 % 0 in
16:43 67.8 °F 51.8 °F 30 in ESE 1.6 mph 6.5 mph 56 % 0 in
16:45 67.6 °F 51.8 °F 30 in West 5.6 mph 6.5 mph 56 % 0 in
16:51 67.1 °F 51.8 °F 30 in West 3.8 mph 6.3 mph 57 % 0 in
16:56 66.7 °F 51.8 °F 30 in WNW 3.1 mph 6.3 mph 59 % 0 in
17:01 67.3 °F 53.6 °F 30 in West 2.9 mph 6 mph 60 % 0 in
17:06 70 °F 55.4 °F 30 in NNW 1.1 mph 6 mph 59 % 0 in
17:16 71.8 °F 53.6 °F 30 in West 3.8 mph 5.8 mph 52 % 0 in
17:21 71.6 °F 53.6 °F 30 in West 3.1 mph 5.8 mph 52 % 0 in
17:26 72.7 °F 53.6 °F 30 in West 2.9 mph 4.7 mph 50 % 0 in
17:31 72 °F 53.6 °F 30 in Calm   4.3 mph 50 % 0 in
17:36 71.4 °F 53.6 °F 30 in Calm   4.3 mph 51 % 0 in
17:41 73.4 °F 55.4 °F 30 in West 5.8 mph 5.8 mph 51 % 0 in
17:46 73.8 °F 53.6 °F 30 in West 2.7 mph 9.8 mph 48 % 0 in
17:51 73.4 °F 53.6 °F 30 in West 7.6 mph 9.8 mph 50 % 0 in
17:56 73.4 °F 53.6 °F 30 in West 5.4 mph 9.8 mph 49 % 0 in
18:01 73.6 °F 53.6 °F 30 in WSW 4 mph 11 mph 48 % 0 in
18:06 73.6 °F 51.8 °F 30 in NW 8.1 mph 11 mph 47 % 0 in
18:11 73.4 °F 51.8 °F 30 in WNW 4.3 mph 10.3 mph 46 % 0 in
18:16 73.8 °F 53.6 °F 30 in West 5.8 mph 8.1 mph 47 % 0 in
18:21 73.6 °F 51.8 °F 30 in WSW 3.1 mph 6.9 mph 46 % 0 in
18:27 74.1 °F 51.8 °F 30 in West 1.6 mph 6.9 mph 46 % 0 in
18:32 73.6 °F 51.8 °F 30 in West 7.4 mph 7.4 mph 45 % 0 in
18:37 73.2 °F 51.8 °F 30 in NW 4.9 mph 7.4 mph 45 % 0 in
18:42 73 °F 50 °F 29.9 in North 2.7 mph 7.4 mph 45 % 0 in
18:47 73 °F 50 °F 29.9 in Calm   6.5 mph 45 % 0 in
18:52 72.7 °F 51.8 °F 29.9 in SW 3.4 mph 6.5 mph 46 % 0 in
19:02 72.9 °F 51.8 °F 30 in WNW 3.6 mph 6.5 mph 48 % 0 in
19:07 72.9 °F 51.8 °F 30 in Calm   5.6 mph 48 % 0 in
19:12 73.2 °F 53.6 °F 30 in NW 2.5 mph 4.3 mph 49 % 0 in
19:17 72.5 °F 51.8 °F 30 in NW 4 mph 4.3 mph 48 % 0 in
19:22 72.5 °F 53.6 °F 30 in NW 2.2 mph 4.9 mph 49 % 0 in
19:25 72.7 °F 53.6 °F 30 in Calm   4.9 mph 49 % 0 in
19:30 72.7 °F 53.6 °F 30 in North 2.7 mph 4.7 mph 50 % 0 in
19:35 70.9 °F 51.8 °F 30 in North 1.6 mph 5.8 mph 51 % 0 in
19:40 70 °F 51.8 °F 30 in North 6.9 mph 6.9 mph 52 % 0 in
19:45 68.7 °F 51.8 °F 30 in North 4.7 mph 6.9 mph 54 % 0 in
19:50 68 °F 51.8 °F 30 in North 2.7 mph 5.8 mph 54 % 0 in
19:55 67.5 °F 50 °F 30 in NNW 4 mph 5.8 mph 54 % 0 in
20:00 67.1 °F 50 °F 30 in North 0.9 mph 5.6 mph 54 % 0 in
20:05 66.7 °F 50 °F 30 in NW 2.5 mph 4.9 mph 56 % 0 in
20:10 66.4 °F 50 °F 30 in North 0.9 mph 5.4 mph 57 % 0 in
20:15 66 °F 51.8 °F 30 in North 4.7 mph 5.4 mph 60 % 0 in
20:20 65.5 °F 53.6 °F 30 in Calm   5.8 mph 64 % 0 in
20:25 64.4 °F 53.6 °F 30 in ENE 3.8 mph 5.8 mph 68 % 0.01 in
20:30 63.5 °F 55.4 °F 30 in NNW 3.1 mph 4.5 mph 72 % 0.02 in
20:35 62.8 °F 53.6 °F 30 in NE 3.8 mph 4.5 mph 72 % 0.04 in
20:40 61.7 °F 55.4 °F 30 in Calm   3.8 mph 77 % 0.06 in
20:45 61.3 °F 55.4 °F 30 in Calm   3.8 mph 77 % 0.06 in
20:50 61 °F 55.4 °F 30 in Calm   2.9 mph 79 % 0.07 in
20:55 60.6 °F 55.4 °F 30 in Calm   2.9 mph 80 % 0.07 in
21:00 60.4 °F 55.4 °F 30 in Calm     80 % 0.07 in
21:05 60.3 °F 55.4 °F 30 in Calm     81 % 0.07 in
21:11 60.1 °F 55.4 °F 30 in Calm     82 % 0.07 in
21:16 59.9 °F 55.4 °F 30 in Calm     83 % 0.08 in
21:21 59.7 °F 55.4 °F 30 in Calm     84 % 0.08 in
21:26 59.5 °F 55.4 °F 30 in Calm     84 % 0.06 in
21:31 59.4 °F 55.4 °F 30 in Calm     85 % 0.05 in
21:36 59.2 °F 55.4 °F 30 in Calm     86 % 0.03 in
21:52 32 °F 55.4 °F 0 in NNE 0.9 mph 0.9 mph 0 % 0.02 in
21:57 58.8 °F 57.2 °F 30 in Calm   1.3 mph 91 % 0.01 in
22:02 58.6 °F 55.4 °F 30 in Calm   2.5 mph 91 % 0.01 in
22:07 58.8 °F 57.2 °F 30 in Calm   2.5 mph 91 % 0.01 in
22:12 58.6 °F 55.4 °F 30 in Calm   1.3 mph 91 % 0 in
22:17 58.8 °F 57.2 °F 30 in Calm     92 % 0 in
22:22 58.6 °F 55.4 °F 30 in Calm   0.9 mph 92 % 0 in
22:27 58.5 °F 55.4 °F 30.1 in NNW 1.6 mph 2.9 mph 92 % 0 in
22:32 58.5 °F 57.2 °F 30.1 in NNW 2.5 mph 4.3 mph 93 % 0 in
22:37 58.5 °F 57.2 °F 30.1 in North 2.2 mph 4.7 mph 93 % 0 in
22:42 58.3 °F 57.2 °F 30 in Calm   4.7 mph 93 % 0 in
22:47 58.3 °F 57.2 °F 30 in NE 3.1 mph 3.1 mph 93 % 0 in
22:52 58.3 °F 57.2 °F 30 in Calm   3.4 mph 93 % 0 in
22:57 58.1 °F 57.2 °F 30 in Calm   3.4 mph 93 % 0 in
23:02 57.9 °F 55.4 °F 30 in NE 4 mph 5.6 mph 94 % 0 in
23:07 57.9 °F 55.4 °F 30 in Calm   5.6 mph 94 % 0 in
23:12 57.9 °F 55.4 °F 30 in Calm   4 mph 94 % 0 in
23:17 57.7 °F 55.4 °F 30 in Calm   3.4 mph 94 % 0 in
23:22 57.7 °F 55.4 °F 30 in North 2 mph 3.1 mph 94 % 0 in
23:27 57.6 °F 55.4 °F 30 in NNE 2 mph 3.1 mph 94 % 0 in
23:32 57.4 °F 55.4 °F 30 in Calm   2.9 mph 94 % 0 in
23:37 57.2 °F 55.4 °F 30 in Calm   2.5 mph 94 % 0 in
23:43 57 °F 55.4 °F 30 in Calm   2.5 mph 94 % 0 in
23:48 56.8 °F 55.4 °F 30 in Calm   2.5 mph 94 % 0 in
23:53 56.7 °F 55.4 °F 30 in Calm   2.2 mph 94 % 0 in
23:58 56.7 °F 55.4 °F 30 in Calm   2.2 mph 94 % 0 in
Le Gheer Warneton
Courtoisie de Weather Underground - 2 mb

Mise a jour : 18/12/2017 23:25:11
Généré par Cumulus 1.9.4 (1099)